This is the latest recevied weather packets stored in our database for station/object K4OAM-13. If no packets are shown the sender has not sent any weather packets the latest 10 day(s).
| Time | Temp. | Humidity | Pressure | Rain* | Wind** | Luminosity | Snow |
|---|---|---|---|---|---|---|---|
| 1777438622 | 6.67° C | 72% | 1010.1 hPa | - | - | - | - |
| 1777438023 | 7.22° C | 72% | 1010 hPa | - | - | - | - |
| 1777437423 | 6.67° C | 73% | 1009.8 hPa | - | - | - | - |
| 1777436823 | 7.22° C | 73% | 1009.9 hPa | - | - | - | - |
| 1777436223 | 6.67° C | 76% | 1010.1 hPa | - | - | - | - |
| 1777435623 | 6.67° C | 77% | 1010.1 hPa | - | - | - | - |
| 1777435023 | 6.67° C | 77% | 1009.9 hPa | - | - | - | - |
| 1777434423 | 6.67° C | 77% | 1009.9 hPa | - | - | - | - |
| 1777433823 | 7.22° C | 76% | 1009.5 hPa | - | - | - | - |
| 1777433223 | 6.67° C | 77% | 1009.2 hPa | - | - | - | - |
| 1777432623 | 7.22° C | 75% | 1008.8 hPa | - | - | - | - |
| 1777432023 | 7.22° C | 73% | 1008.7 hPa | - | - | - | - |
| 1777431423 | 7.22° C | 77% | 1008.4 hPa | - | - | - | - |
| 1777430823 | 7.22° C | 75% | 1008.2 hPa | - | - | - | - |
| 1777430223 | 7.22° C | 76% | 1007.9 hPa | - | - | - | - |
| 1777429623 | 7.22° C | 76% | 1007.5 hPa | - | - | - | - |
| 1777429023 | 7.22° C | 74% | 1007.2 hPa | - | - | - | - |
| 1777428426 | 7.78° C | 74% | 1007.1 hPa | - | - | - | - |
| 1777427823 | 7.78° C | 73% | 1006.8 hPa | - | - | - | - |
| 1777426023 | 7.78° C | 73% | 1005.4 hPa | - | - | - | - |
| 1777425423 | 7.78° C | 74% | 1005.4 hPa | - | - | - | - |
| 1777424823 | 7.78° C | 76% | 1004.7 hPa | - | - | - | - |
| 1777424223 | 7.78° C | 78% | 1004.9 hPa | - | - | - | - |
| 1777423623 | 7.78° C | 79% | 1004.7 hPa | - | - | - | - |
| 1777423023 | 8.33° C | 77% | 1004.1 hPa | - | - | - | - |
* Rain since midnight (hover to see other rain measurements)
** Current wind speed in m/s (hover to see current wind gust speed)